DW2258 Weather Reports


time (UTC)temp
F
wind
direction
speed
knots
gust
knots
rain 1hr
in
rain 24hr
in
rain mn
in
humidity
%
barometer
mb
20260508121635 46 285 7.8 15.6 0.00 0.00 0.00 75 1006.6
20260508120156 45 273 9.6 14.8 0.00 0.00 0.00 75 1006.6
20260508114655 45 297 9.6 13.0 0.00 0.00 0.00 73 1006.5
20260508113135 45 275 7.8 13.0 0.00 0.00 0.00 74 1006.5
20260508111635 45 295 8.7 12.2 0.00 0.00 0.00 74 1006.4
20260508110140 44 306 6.1 11.3 0.00 0.00 0.00 75 1006.4
20260508104701 44 317 6.1 11.3 0.00 0.00 0.00 75 1006.1
20260508103139 43 311 6.1 12.2 0.00 0.00 0.00 75 1005.8
20260508101644 43 301 5.2 10.4 0.00 0.00 0.00 75 1005.6
20260508100205 43 280 5.2 8.7 0.00 0.00 0.00 75 1005.5
20260508094648 42 309 4.3 7.8 0.00 0.00 0.00 76 1005.4
20260508093148 42 312 4.3 7.8 0.00 0.00 0.00 76 1005.4
20260508091631 42 330 4.3 8.7 0.00 0.00 0.00 77 1005.4
20260508090130 41 299 5.2 7.0 0.00 0.00 0.00 76 1005.3
20260508084635 41 347 1.7 3.5 0.00 0.00 0.00 76 1005.3
20260508083135 42 342 2.6 7.0 0.00 0.00 0.00 75 1005.2
20260508081634 42 297 5.2 7.0 0.00 0.00 0.00 75 1005.0
20260508080135 43 333 3.5 5.2 0.00 0.00 0.00 73 1005.1
20260508074635 43 343 2.6 4.3 0.00 0.01 0.00 73 1005.0
20260508073140 44 300 1.7 3.5 0.00 0.01 0.00 72 1005.0
20260508071642 44 310 3.5 4.3 0.00 0.01 0.00 71 1005.0
20260508070202 44 295 2.6 5.2 0.00 0.01 0.00 71 1005.0
20260508064643 44 289 4.3 6.1 0.00 0.05 0.00 70 1005.1
20260508063202 44 305 2.6 4.3 0.00 0.05 0.00 70 1005.0
20260508061644 44 271 0.9 2.6 0.00 0.05 0.00 73 1005.0
20260508060146 45 301 2.6 3.5 0.00 0.05 0.00 72 1005.1
20260508054647 44 302 0.9 3.5 0.00 0.07 0.00 72 1005.3
20260508053207 44 283 2.6 4.3 0.00 0.07 0.00 72 1005.3
20260508051648 44 315 0.9 5.2 0.00 0.07 0.00 72 1005.3
20260508050130 45 359 1.7 4.3 0.00 0.07 0.00 70 1005.4
20260508044629 45 347 3.5 6.1 0.00 0.07 0.07 68 1005.4
20260508043129 45 343 1.7 3.5 0.00 0.07 0.07 70 1005.5
20260508041632 46 354 0.9 2.6 0.00 0.07 0.07 71 1005.7
20260508040133 46 318 2.6 9.6 0.00 0.07 0.07 70 1005.7
20260508034653 46 354 4.3 8.7 0.00 0.08 0.07 69 1005.6
20260508033153 47 342 5.2 11.3 0.00 0.08 0.07 69 1005.6
20260508031633 47 330 8.7 15.6 0.00 0.08 0.07 68 1005.4
20260508030136 47 348 5.2 10.4 0.00 0.08 0.07 68 1005.4
20260508024635 48 340 7.0 14.8 0.00 0.18 0.07 65 1005.3
20260508023135 48 314 7.0 17.4 0.00 0.18 0.07 66 1005.1
20260508021630 48 325 7.8 18.2 0.00 0.18 0.07 67 1005.2
20260508020130 49 317 9.6 14.8 0.00 0.18 0.07 69 1005.2
20260508014635 49 343 9.6 17.4 0.00 0.26 0.07 77 1005.4
20260508013135 48 354 7.0 12.2 0.00 0.26 0.07 83 1005.3
20260508011634 48 324 7.8 13.0 0.00 0.26 0.07 84 1005.1
20260508010133 49 354 8.7 11.3 0.00 0.26 0.07 83 1005.0
20260508004655 48 8 6.1 12.2 0.00 0.26 0.07 83 1004.7
20260508003134 47 335 7.0 10.4 0.00 0.26 0.07 86 1004.6
20260508001635 46 228 6.1 14.8 0.00 0.26 0.07 87 1003.9
20260508000134 46 253 9.6 14.8 0.00 0.26 0.07 86 1003.7
20260507234655 45 240 7.8 13.0 0.00 0.26 0.07 88 1003.7
20260507233138 45 211 8.7 13.9 0.00 0.26 0.07 88 1003.6
20260507231637 45 241 9.6 14.8 0.00 0.26 0.07 88 1003.5
20260507230136 45 236 7.8 13.0 0.00 0.26 0.07 87 1003.4
20260507224635 46 212 8.7 13.0 0.00 0.26 0.07 86 1003.3
20260507223139 46 228 7.8 16.5 0.00 0.26 0.07 87 1003.0
20260507221639 46 241 8.7 18.2 0.00 0.26 0.07 86 1003.1
20260507220139 46 240 9.6 15.6 0.00 0.26 0.07 87 1003.1
20260507214639 47 218 7.0 14.8 0.00 0.26 0.07 85 1003.3
20260507213200 48 213 10.4 16.5 0.00 0.26 0.07 84 1003.3
20260507211702 48 200 13.0 20.0 0.00 0.26 0.07 85 1003.2
20260507210143 48 227 13.0 19.1 0.00 0.26 0.07 85 1003.2
20260507204642 48 216 11.3 20.9 0.00 0.26 0.07 84 1003.1
20260507203142 48 237 12.2 20.9 0.00 0.26 0.07 84 1003.1
20260507201642 48 219 11.3 17.4 0.00 0.26 0.07 85 1003.2
20260507200147 48 216 11.3 17.4 0.00 0.26 0.07 85 1003.2
20260507194646 49 239 11.3 15.6 0.00 0.26 0.07 84 1003.2
20260507193144 48 246 10.4 17.4 0.00 0.26 0.07 85 1003.3
20260507191644 49 219 8.7 14.8 0.00 0.26 0.07 84 1003.2
20260507190147 49 207 9.6 16.5 0.00 0.26 0.07 84 1003.2
20260507184708 49 266 9.6 19.1 0.00 0.26 0.07 84 1003.4
20260507183148 49 208 7.0 15.6 0.00 0.26 0.07 87 1003.5
20260507181629 48 189 8.7 16.5 0.00 0.26 0.07 86 1003.6
20260507180210 49 196 7.0 13.9 0.00 0.26 0.07 87 1003.7
20260507174632 48 210 4.3 11.3 0.00 0.26 0.07 88 1003.7
20260507173134 48 188 8.7 13.0 0.00 0.26 0.07 86 1003.8
20260507171657 48 171 6.1 13.9 0.00 0.26 0.07 87 1003.7
20260507170134 49 245 5.2 9.6 0.00 0.26 0.07 87 1003.9
20260507164640 48 214 7.0 12.2 0.00 0.26 0.07 87 1004.1
20260507163139 49 196 5.2 9.6 0.00 0.26 0.07 87 1004.1
20260507161637 50 243 3.5 8.7 0.00 0.26 0.07 85 1004.1
20260507160139 49 220 5.2 9.6 0.00 0.26 0.07 85 1004.3
20260507154638 51 191 5.2 8.7 0.00 0.26 0.07 83 1004.6
20260507153141 51 201 4.3 7.0 0.00 0.26 0.07 81 1004.8
20260507151640 52 280 6.1 7.8 0.00 0.26 0.07 80 1005.0
20260507150140 52 285 3.5 7.8 0.00 0.26 0.07 83 1004.7
20260507144639 51 309 5.2 9.6 0.00 0.26 0.07 84 1004.7
20260507143142 51 319 6.1 8.7 0.00 0.26 0.07 84 1004.8
20260507141643 50 307 4.3 9.6 0.00 0.26 0.07 88 1005.2
20260507140142 49 328 6.1 10.4 0.00 0.26 0.07 90 1005.4
20260507134642 48 324 4.3 8.7 0.00 0.26 0.07 92 1005.3
20260507133147 47 270 1.7 7.8 0.00 0.26 0.07 92 1006.2
20260507131646 47 324 2.6 7.0 0.00 0.26 0.07 93 1005.3
20260507130206 47 323 1.7 7.0 0.00 0.26 0.07 93 1005.3
20260507124707 47 298 3.5 7.8 0.00 0.26 0.07 94 1005.8
20260507123147 46 12 3.5 7.8 0.00 0.26 0.07 94 1005.3